Regional Weather Roundup
Issued by NWS

Home | Current Version | Previous Version | Text Only | Print | Product List | Glossary On
Versions: 1 2 3 4 5 6 7 8 9 10 11 12 13 14 15 16 17 18 19 20 21 22 23 24 25 26 27 28 29 30 31 32 33 34 35 36 37 38 39 40 41 42 43 44 45 46 47 48 49 50
000
ASUS44 KEWX 241102
RWRTX
SOUTH TEXAS REGIONAL WEATHER ROUNDUP
NATIONAL WEATHER SERVICE AUSTIN/SAN ANTONIO TX
600 AM CDT THU JUL 24 2014

NOTE: "FAIR" INDICATED FEW OR NO CLOUDS BELOW 12,000 FEET WITH NO
SIGNIFICANT WEATHER AND/OR OBSTRUCTIONS TO VISIBILITY.

* - THESE STATIONS ARE NOT NWS OR FAA STATIONS...AND ARE NOT SUBJECT
    TO NWS AND FAA QUALITY CONTROL.

TXZ171-172-183>190-241200-
TEXAS HILL COUNTRY AND EDWARDS PLATEAU

CITY           SKY/WX    TMP DP  RH WIND       PRES   REMARKS
JUNCTION       CLOUDY    76  68  76 CALM      30.07S
*LLANO         CLOUDY    73  70  88 CALM      30.06S
BURNET         CLOUDY    75  68  78 NE3       30.06R
*HORSESHOE BAY CLOUDY    75  67  76 CALM      30.03R
*KERRVILLE     PTCLDY    75  69  79 CALM      30.06S
*FREDERICKSBRG CLOUDY    73  66  78 CALM      30.06S
*ROCKSPRINGS   CLOUDY    75  66  73 SE6       30.10F
*BOERNE STAGE  MOCLDY    73  68  83 CALM      30.06S
*CASTROVILLE   MOCLDY    75  68  79 CALM      30.03R
HONDO          PTCLDY    74  70  87 NE3       30.04R
*UVALDE        PTCLDY    75  69  80 CALM      30.02S
DEL RIO        CLEAR     82  67  60 E8        30.00R
LAUGHLIN AFB   NOT AVBL
CARRIZO SPRGS  PTCLDY    75  68  78 CALM      29.97S
$$

TXZ173-191>194-202-209-217>225-228-241200-
CENTRAL AND SOUTH CENTRAL TEXAS

CITY           SKY/WX    TMP DP  RH WIND       PRES   REMARKS
GEORGETOWN     CLOUDY    75  72  88 N5        30.05R
AUSTIN/BERGSTM LGT RAIN  76  72  87 CALM      30.00R
AUSTIN/MABRY   CLOUDY    79  71  76 CALM      30.02R
*AUSTIN/EXEC   CLOUDY    75  73  94 CALM      30.02R
*LAGO VISTA    CLOUDY    77  69  76 CALM      30.04R
SAN MARCOS     MOCLDY    73  66  78 CALM      30.02R
NEW BRAUNFELS  MOCLDY    75  71  87 SW3       29.99R
RANDOLPH AFB   MOCLDY    78  70  75 W5        30.01S
PT SAN ANTONIO MOCLDY    77  70  79 CALM      30.01R
SAN ANTONIO    MOCLDY    80  70  71 CALM      30.02R
STINSON FIELD  PTCLDY    76  71  85 CALM      29.99R
*PLEASANTON    PTCLDY    75  70  86 CALM      29.99S
*LA GRANGE     MOCLDY    80  76  87 CALM      29.99R
*GIDDINGS      LGT RAIN  77  73  86 CALM      30.05R
*GONZALES      MOCLDY    78  74  88 CALM      29.99R
$$

TXZ163>164-176>182-195>201-210>213-226-227-235-241200-
SOUTHEAST TEXAS

CITY           SKY/WX    TMP DP  RH WIND       PRES   REMARKS
COLLEGE STN    CLOUDY    76  69  79 CALM      30.01R
*BRYAN         CLOUDY    73  69  89 NE5       30.02S
*CALDWELL      LGT RAIN  73  72  94 NE6       30.05R
*CROCKETT      MOCLDY    72  70  94 CALM      30.06S
*BRENHAM       MOCLDY    76  72  86 CALM      30.01R
HUNTSVILLE     MOCLDY    72  67  84 CALM      30.03R
CONROE         PTCLDY    71  69  93 N5        30.02R
HOUSTON BUSH   MOCLDY    74  72  93 CALM      29.98S
HOUSTON HOBBY  CLEAR     76  72  87 N3        29.97F
*HOUSTON SW AP CLEAR     73  73 100 CALM      29.98S
PEARLAND       CLEAR     75  72  90 CALM      29.99S
HOUSTON HOOKS  CLOUDY    76  75  97 CALM      29.99S
ELLINGTON FLD  PTCLDY    75  72  88 CALM      29.99R
SUGAR LAND     CLEAR     75  73  93 NW6       29.98S
*HOUSTON EXEC  CLOUDY    77  77 100 CALM      30.00S
*CLEVELAND MUN CLEAR     71  68  90 N3        30.00F
*WHARTON       PTCLDY    76  75  95 CALM      29.99S FOG
$$

TXZ214>216-236>238-241200-
THE UPPER TEXAS COAST

CITY           SKY/WX    TMP DP  RH WIND       PRES   REMARKS
*ORANGE        CLEAR     72  72 100 CALM      29.99R FOG
PORT ARTHUR    CLEAR     73  71  93 W5        29.97R
GALVESTON      MOCLDY    79  73  82 CALM      29.98R
ANGLETON       PTCLDY    74  72  93 CALM      29.98R
*BAY CITY      PTCLDY    78  78 100 CALM      29.98R
PALACIOS       PTCLDY    79  76  90 SW3       29.97S
$$

TXZ229>234-239>247-241200-
TEXAS COASTAL BEND AND RIO GRANDE PLAINS

CITY           SKY/WX    TMP DP  RH WIND       PRES   REMARKS
VICTORIA       PTCLDY    79  76  90 CALM      29.98S
*BEEVILLE      PTCLDY    77  77 100 CALM      29.99R FOG
ROCKPORT       MOCLDY    80  77  90 CALM      29.96S
*PORT ARANSAS  PTCLDY    79  77  91 SW5       29.96S
*PORT LAVACA   PTCLDY    75  73  95 CALM      29.97F FOG
*INGLESIDE     MOCLDY    82  75  78 SW7       29.96S
CORPUS CHRISTI MOCLDY    77  74  90 S6        29.96F
CORPUS NAS     PTCLDY    80  76  87 SW8       29.96F
*ROBSTOWN      MOCLDY    78  75  91 S3        29.97S
ALICE          PTCLDY    76  74  93 S13       29.97S
KINGSVILLE NAS PTCLDY    75  75 100 S7        29.97S
COTULLA        PTCLDY    77  70  79 SE3       29.98F
*FAITH RANCH   PTCLDY    77  72  83 E7        29.99S
LAREDO         PTCLDY    81  71  71 E6        30.01R
$$

TXZ248>255-241200-
DEEP SOUTH TEXAS

CITY           SKY/WX    TMP DP  RH WIND       PRES   REMARKS
BROWNSVILLE    CLEAR     77  75  93 SE5       29.97S
PORT ISABEL    CLEAR     77  72  84 S3        29.96F
*SOUTH PADRE     N/A     79  77  94 CALM      29.96F
HARLINGEN      PTCLDY    75  74  96 CALM      29.96F
*HEBBRONVILLE  MOCLDY    77  71  83 CALM      30.00S
MCALLEN        CLEAR     78  76  93 SE3       29.97S
*WESLACO       CLEAR     77  73  87 CALM      29.96S
FALFURRIAS     PTCLDY    62  62 100 SE3       29.97S
EDINBURG       CLEAR     77  73  86 CALM      29.97S
*ZAPATA        NOT AVBL
$$

TXZ213>215-236>238-242>244-246-247-251-254-255-241200-
CMAN STATIONS

STATION/POSITION TIME  TEMP    WIND        PRES    WAVE
                       AIR SEA DIR/SP/G            HT/PER
                 (UTC) (F)     (DEG/KT/KT) (MB)    (FT/S)
SABINE PASS      1000   80 87  350/  7/  8 1014.6
SEA RIM ST PARK  1000   80     170/  4/  6 1014.9
NORTH JETTY/GLS  1000   81 91  100/  2/  3   N/A
EAGLE POINT      1000   76 89  320/  3/  5 1014.9
MORGANS POINT    1000   78 91  260/  4/  5 1014.9
MISSION/ARANSAS  1000   81     190/  8     1015.0
PORT O`CONNOR    1000          210/  9/ 11   N/A
PORT ARANSAS     1000   82 86  180/ 11/ 11 1014.9
MALAQUITE BEACH  1000   81 82  190/ 13/ 14 1013.7
BAFFIN BAY       1000   80 82  190/  5/  6 1014.9
PORT ISABEL      1000   80 82  160/  3/  3 1015.2
$$

GMZ080-GMZ150>470-241200-
OFFSHORE BUOY REPORTS

STATION/POSITION TIME  TEMP    WIND        PRES    WAVE
                       AIR SEA DIR/SP/G            HT/PER
                 (UTC) (F)     (DEG/KT/KT) (MB)    (FT/S)
90 E PT ARANSAS  1100   83 83  210/ 12/ 14 1014.8    1/ 5
35 NE PT MANSFLD 1000   82 82  200/  8/  8 1014.8    1/ 5
200 E PT ISABEL  1000   83 85  200/  6/  8 1015.0    1/ 5
$$



USA.gov is the U.S. government's official web portal to all federal, state and local government web resources and services.